This demonstration page uses our WeatherBlox Daily Observations layout. Learn more.

Left ArrowRight Arrow

30.21309, -93.2044

Hourly Observations for August 21, 2020

Temp ( °F °C ) Dew Point ( °F °C ) Humidity (%) Winds ( mph kmh ) Pressure ( in mb ) Visibility ( mi km ) Precip ( " mm )
12:15 am 00:15 Clear 74 23.1 67 19.7 81 81 Calm 29.84 1010 10 16 0.00 0.00
12:35 am 00:35 Clear 73 22.7 67 19.6 83 83 Calm 29.85 1011 10 16 0.00 0.00
12:55 am 00:55 Clear 74 23.2 67 19.3 79 79 Calm 29.85 1011 10 16 0.00 0.00
1:15 am 01:15 Clear 73 22.9 67 19.5 81 81 Calm 29.85 1011 10 16 0.00 0.00
1:35 am 01:35 Clear 73 22.8 67 19.5 82 82 Calm 29.84 1010 10 16 0.00 0.00
1:55 am 01:55 Clear 73 22.6 67 19.4 82 82 Calm 29.84 1010 10 16 0.00 0.00
2:15 am 02:15 Clear 72 22.4 67 19.5 84 84 Calm 29.83 1010 10 16 0.00 0.00
2:35 am 02:35 Clear 71 21.4 67 19.6 90 90 Calm 29.83 1010 10 16 0.00 0.00
2:55 am 02:55 Partly Cloudy 70 21.1 67 19.7 92 92 Calm 29.83 1010 10 16 0.00 0.00
3:15 am 03:15 Partly Cloudy 70 21.2 67 19.7 91 91 Calm 29.84 1010 10 16 0.00 0.00
3:35 am 03:35 Mostly Cloudy 70 20.9 67 19.2 90 90 Calm 29.84 1010 10 16 0.00 0.00
3:55 am 03:55 Cloudy 69 20.5 67 19.2 92 92 SE 3 6 29.85 1011 10 16 0.00 0.00
4:15 am 04:15 Partly Cloudy 69 20.3 66 19.1 93 93 Calm 29.84 1010 10 16 0.00 0.00
4:35 am 04:35 Partly Cloudy 69 20.8 67 19.2 91 91 Calm 29.84 1010 10 16 0.00 0.00
4:55 am 04:55 Clear 69 20.6 67 19.3 92 92 Calm 29.84 1010 10 16 0.00 0.00
5:15 am 05:15 Clear 69 20.8 67 19.3 91 91 Calm 29.84 1010 10 16 0.00 0.00
5:35 am 05:35 Clear 70 21.1 67 19.4 90 90 WNW 3 6 29.85 1011 10 16 0.00 0.00
6:00 am 06:00 Mostly Clear 70 21 66 19 88 88 Calm 29.85 1011 10 16 0.00 0.00
6:45 am 06:45 Mostly Sunny 70 21 66 19 88 88 Calm 29.87 1012 10 16 0.00 0.00
7:53 am 07:53 Mostly Sunny 72 22 68 20 88 88 Calm 29.87 1011 10 16 0.00 0.00
8:53 am 08:53 Mostly Sunny 75 24 75 24 100 100 Calm 29.90 1013 10 16 0.00 0.00
9:48 am 09:48 Mostly Sunny 82 28 70 21 66 66 ESE 7 11 29.90 1013 10 16 0.00 0.00
10:55 am 10:55 Mostly Sunny 86 30 66 19 52 52 WSW 5 7 29.90 1013 10 16 0.00 0.00
11:47 am 11:47 Partly Cloudy 88 31 64 18 46 46 VRB 6 9 29.89 1012 10 16 0.00 0.00
12:45 pm 12:45 Partly Cloudy 90 32 64 18 43 43 N 8 13 29.88 1012 10 16 0.00 0.00
1:46 pm 13:46 Partly Cloudy 90 32 61 16 38 38 NW 12 19 29.86 1011 10 16 0.00 0.00
2:50 pm 14:50 Partly Cloudy 91 33 61 16 36 36 N 6 9 29.84 1010 10 16 0.00 0.00
3:55 pm 15:55 Mostly Sunny 91 33 61 16 36 36 W 6 9 29.82 1010 10 16 0.00 0.00
4:45 pm 16:45 Partly Cloudy 91 33 57 14 32 32 NW 10 17 29.81 1009 10 16 0.00 0.00
5:50 pm 17:50 Partly Cloudy 91 33 61 16 36 36 NW 8 13 29.82 1010 10 16 0.00 0.00
6:50 pm 18:50 Partly Cloudy 90 32 68 20 49 49 SW 5 7 29.81 1009 10 16 0.00 0.00
7:45 pm 19:45 Mostly Sunny 84 29 70 21 62 62 S 8 13 29.83 1010 10 16 0.00 0.00
8:45 pm 20:45 Mostly Clear 79 26 72 22 79 79 Calm 29.83 1010 10 16 0.00 0.00
9:45 pm 21:45 Mostly Clear 75 24 70 21 83 83 Calm 29.84 1010 10 16 0.00 0.00
10:15 pm 22:15 Clear 81 27.2 71 21.9 73 73 SSW 5 7 29.86 1011 10 16 0.00 0.00
10:35 pm 22:35 Clear 81 27 72 22 74 74 SW 3 6 29.86 1011 10 16 0.00 0.00
10:55 pm 22:55 Clear 81 27.1 72 22.2 75 75 SW 3 6 29.86 1011 10 16 0.00 0.00
11:15 pm 23:15 Clear 77 24.8 71 21.9 84 84 SW 3 6 29.86 1011 10 16 0.00 0.00
11:35 pm 23:35 Clear 76 24.6 71 21.8 84 84 Calm 29.86 1011 10 16 0.00 0.00
11:55 pm 23:55 Clear 74 23.4 71 21.4 89 89 Calm 29.86 1011 10 16 0.00 0.00

Powered by AerisWeather